Skip Page Navigation
NASA JPL Caltech
NASA Logo - Jet Propulsion Laboratory + View the NASA Portal
+ Near-Earth Object (NEO) Program
Search JPL
JPL Home Earth Solar System Stars & Galaxies Technology
JPL Solar System Dynamics
BODIES ORBITS EPHEMERIDES TOOLS PHYSICAL DATA DISCOVERY FAQ SITE MAP
JPL Small-Body Database Browser
Search: [ help ]  
152680 (1998 KJ9)
Classification: Apollo [NEO, PHA]          SPK-ID: 2152680
Ephemeris | Orbit Diagram | Orbital Elements | Physical Parameters | Discovery Circumstances | Close-Approach Data ]

[ hide orbit diagram ]
Orbit Diagram
Note: Make sure you have Java enabled on your browser to see the applet. This applet is provided as a 3D orbit visualization tool. The applet was implemented using 2-body methods, and hence should not be used for determining accurate long-term trajectories (over several years or decades) or planetary encounter circumstances. For accurate long-term ephemerides, please instead use our Horizons system.
Orbit Viewer

Additional Notes: the orbits shown in the applet are color coded. The planets are white lines, and the asteroid/comet is a blue line. The bright white line indicates the portion of the orbit that is above the ecliptic plane, and the darker portion is below the ecliptic plane. Likewise for the asteroid/comet orbit, the light blue indicates the portion above the ecliptic plane, and the dark blue the portion below the ecliptic plane.

Orbit Viewer applet originally written and kindly provided by Osamu Ajiki (AstroArts), and further modified by Ron Baalke (JPL).


Orbital Elements at Epoch 2456400.5 (2013-Apr-18.0) TDB
Reference: JPL 25 (heliocentric ecliptic J2000)
 Element Value Uncertainty (1-sigma)   Units 
e .639661108589567 3.9938e-08  
a 1.447721701126465 5.3606e-09 AU
q .5216704328547365 5.8518e-08 AU
i 10.93380507745562 1.3807e-05 deg
node 98.70016681387254 3.2338e-05 deg
peri 259.9359605955256 3.1314e-05 deg
M 160.5022090155472 2.0524e-05 deg
tp 2456116.835775209803
(2012-Jul-08.33577521)
3.4766e-05 JED
period 636.2474482490093
1.74
3.5338e-06
9.675e-09
d
yr
n .5658175934390642 3.1426e-09 deg/d
Q 2.373772969398193 8.7896e-09 AU
  Orbit Determination Parameters
   # obs. used (total)      192  
   data-arc span      7706 days (21.10 yr)  
   first obs. used      1990-01-01  
   last obs. used      2011-02-06  
   planetary ephem.      DE405  
   SB-pert. ephem.      SB405-CPV-2  
   condition code      0  
   fit RMS      .4461  
   data source      ORB  
   producer      Otto Matic  
   solution date      2013-Apr-29 15:39:13  

Additional Information
 Earth MOID = .0054161 AU 
 T_jup = 4.390 
[ show covariance matrix ]

Ephemeris | Orbit Diagram | Orbital Elements | Physical Parameters | Discovery Circumstances | Close-Approach Data ]

Physical Parameter Table
Parameter Symbol Value Units Sigma Reference Notes
absolute magnitude H 19.425 mag .74196 25 autocmod 2.5c

152680 (1998 KJ9)          Discovered 1998-May-27 by LINEAR at Socorro (704)
Reference: 20070402/Numbers.arcLast Updated: 2007-04-04

[ show close-approach data ]
Ephemeris | Orbit Diagram | Orbital Elements | Physical Parameters | Discovery Circumstances | Close-Approach Data ]
ABOUT SSD CREDITS/AWARDS PRIVACY/COPYRIGHT GLOSSARY LINKS
FirstGov 2013-Jun-19 18:24 UT
(server date/time)  
NASA Home Page
Site Manager:   Donald K. Yeomans
Webmaster  Alan B. Chamberlin